Year,Month,Day,Hour,Minute,Value (Times are PST for temperature in C)
2008,09,01,00,00,11.60
2008,09,01,00,01,11.60
2008,09,01,00,02,11.60
2008,09,01,00,03,11.60
2008,09,01,00,04,11.40
2008,09,01,00,05,11.40
2008,09,01,00,06,11.40
2008,09,01,00,07,11.40
2008,09,01,00,08,11.40
2008,09,01,00,09,11.40
2008,09,01,00,10,11.40
2008,09,01,00,11,11.30
2008,09,01,00,12,11.30
2008,09,01,00,13,11.30
2008,09,01,00,14,11.30
2008,09,01,00,15,11.20
2008,09,01,00,16,11.20
2008,09,01,00,17,11.20
2008,09,01,00,18,11.20
2008,09,01,00,19,11.20
2008,09,01,00,20,11.20
2008,09,01,00,21,11.20
2008,09,01,00,22,11.20
2008,09,01,00,23,11.20
2008,09,01,00,24,11.10
2008,09,01,00,25,11.10
2008,09,01,00,26,11.10
2008,09,01,00,27,11.00
2008,09,01,00,28,10.90
2008,09,01,00,29,10.90
2008,09,01,00,30,10.90
2008,09,01,00,31,10.90
2008,09,01,00,32,10.90
2008,09,01,00,33,10.90
2008,09,01,00,34,10.90
2008,09,01,00,35,10.90
2008,09,01,00,36,10.90
2008,09,01,00,37,10.90
2008,09,01,00,38,10.90
2008,09,01,00,39,10.80
2008,09,01,00,40,10.80
2008,09,01,00,41,10.80
2008,09,01,00,42,10.80
2008,09,01,00,43,10.80
2008,09,01,00,44,10.70
2008,09,01,00,45,10.70
2008,09,01,00,46,10.70
2008,09,01,00,47,10.70
2008,09,01,00,48,10.70
2008,09,01,00,49,10.70
2008,09,01,00,50,10.70
2008,09,01,00,51,10.60
2008,09,01,00,52,10.60
2008,09,01,00,53,10.60
2008,09,01,00,54,10.60
2008,09,01,00,55,10.60
2008,09,01,00,56,10.60
2008,09,01,00,57,10.60
2008,09,01,00,58,10.60
2008,09,01,00,59,10.60
2008,09,01,01,00,10.70
2008,09,01,01,01,10.80
2008,09,01,01,02,10.80
2008,09,01,01,03,10.80
2008,09,01,01,04,10.80
2008,09,01,01,05,10.80
2008,09,01,01,06,10.80
2008,09,01,01,07,10.80
2008,09,01,01,08,10.80
2008,09,01,01,09,10.70
2008,09,01,01,10,10.70
2008,09,01,01,11,10.70
2008,09,01,01,12,10.70
2008,09,01,01,13,10.60
2008,09,01,01,14,10.60
2008,09,01,01,15,10.60
2008,09,01,01,16,10.60
2008,09,01,01,17,10.60
2008,09,01,01,18,10.60
2008,09,01,01,19,10.60
2008,09,01,01,20,10.50
2008,09,01,01,21,10.40
2008,09,01,01,22,10.40
2008,09,01,01,23,10.40
2008,09,01,01,24,10.40
2008,09,01,01,25,10.40
2008,09,01,01,26,10.40
2008,09,01,01,27,10.40
2008,09,01,01,28,10.40
2008,09,01,01,29,10.40
2008,09,01,01,30,10.40
2008,09,01,01,31,10.40
2008,09,01,01,32,10.40
2008,09,01,01,33,10.40
2008,09,01,01,34,10.40
2008,09,01,01,35,10.40
2008,09,01,01,36,10.40
2008,09,01,01,37,10.40
2008,09,01,01,38,10.40
2008,09,01,01,39,10.40
2008,09,01,01,40,10.40
2008,09,01,01,41,10.40
2008,09,01,01,42,10.40
2008,09,01,01,43,10.40
2008,09,01,01,44,10.40
2008,09,01,01,45,10.40
2008,09,01,01,46,10.40
2008,09,01,01,47,10.40
2008,09,01,01,48,10.40
2008,09,01,01,49,10.30
2008,09,01,01,50,10.30
2008,09,01,01,51,10.40
2008,09,01,01,52,10.40
2008,09,01,01,53,10.40
2008,09,01,01,54,10.60
2008,09,01,01,55,10.60
2008,09,01,01,56,10.60
2008,09,01,01,57,10.60
2008,09,01,01,58,10.60
2008,09,01,01,59,10.60
2008,09,01,02,00,10.60
2008,09,01,02,01,10.60
2008,09,01,02,02,10.60
2008,09,01,02,03,10.60
2008,09,01,02,04,10.70
2008,09,01,02,05,10.80
2008,09,01,02,06,10.80
2008,09,01,02,07,10.90
2008,09,01,02,08,10.90
2008,09,01,02,09,10.90
2008,09,01,02,10,10.90
2008,09,01,02,11,10.90
2008,09,01,02,12,10.90
2008,09,01,02,13,10.90
2008,09,01,02,14,10.90
2008,09,01,02,15,10.90
2008,09,01,02,16,10.90
2008,09,01,02,17,10.90
2008,09,01,02,18,10.90
2008,09,01,02,19,10.90
2008,09,01,02,20,10.90
2008,09,01,02,21,11.00
2008,09,01,02,22,11.10
2008,09,01,02,23,11.10
2008,09,01,02,24,11.10
2008,09,01,02,25,11.10
2008,09,01,02,26,11.10
2008,09,01,02,27,11.10
2008,09,01,02,28,11.10
2008,09,01,02,29,11.10
2008,09,01,02,30,11.10
2008,09,01,02,31,11.00
2008,09,01,02,32,10.90
2008,09,01,02,33,10.90
2008,09,01,02,34,10.80
2008,09,01,02,35,10.80
2008,09,01,02,36,10.80
2008,09,01,02,37,10.80
2008,09,01,02,38,10.70
2008,09,01,02,39,10.70
2008,09,01,02,40,10.60
2008,09,01,02,41,10.60
2008,09,01,02,42,10.60
2008,09,01,02,43,10.60
2008,09,01,02,44,10.40
2008,09,01,02,45,10.40
2008,09,01,02,46,10.40
2008,09,01,02,47,10.40
2008,09,01,02,48,10.30
2008,09,01,02,49,10.30
2008,09,01,02,50,10.30
2008,09,01,02,51,10.20
2008,09,01,02,52,10.20
2008,09,01,02,53,10.20
2008,09,01,02,54,10.10
2008,09,01,02,55,10.10
2008,09,01,02,56,10.10
2008,09,01,02,57,10.10
2008,09,01,02,58,10.10
2008,09,01,02,59,10.10
2008,09,01,03,00,10.10
2008,09,01,03,01,9.90
2008,09,01,03,02,9.90
2008,09,01,03,03,9.90
2008,09,01,03,04,9.90
2008,09,01,03,05,9.90
2008,09,01,03,06,9.90
2008,09,01,03,07,9.90
2008,09,01,03,08,9.80
2008,09,01,03,09,9.80
2008,09,01,03,10,9.80
2008,09,01,03,11,9.80
2008,09,01,03,12,9.80
2008,09,01,03,13,9.80
2008,09,01,03,14,9.70
2008,09,01,03,15,9.70
2008,09,01,03,16,9.70
2008,09,01,03,17,9.70
2008,09,01,03,18,9.70
2008,09,01,03,19,9.70
2008,09,01,03,20,9.70
2008,09,01,03,21,9.60
2008,09,01,03,22,9.60
2008,09,01,03,23,9.60
2008,09,01,03,24,9.60
2008,09,01,03,25,9.60
2008,09,01,03,26,9.60
2008,09,01,03,27,9.60
2008,09,01,03,28,9.60
2008,09,01,03,29,9.50
2008,09,01,03,30,9.50
2008,09,01,03,31,9.50
2008,09,01,03,32,9.50
2008,09,01,03,33,9.50
2008,09,01,03,34,9.50
2008,09,01,03,35,9.50
2008,09,01,03,36,9.50
2008,09,01,03,37,9.50
2008,09,01,03,38,9.50
2008,09,01,03,39,9.50
2008,09,01,03,40,9.50
2008,09,01,03,41,9.40
2008,09,01,03,42,9.40
2008,09,01,03,43,9.40
2008,09,01,03,44,9.40
2008,09,01,03,45,9.40
2008,09,01,03,46,9.50
2008,09,01,03,47,9.50
2008,09,01,03,48,9.50
2008,09,01,03,49,9.50
2008,09,01,03,50,9.40
2008,09,01,03,51,9.40
2008,09,01,03,52,9.40
2008,09,01,03,53,9.40
2008,09,01,03,54,9.40
2008,09,01,03,55,9.40
2008,09,01,03,56,9.40
2008,09,01,03,57,9.40
2008,09,01,03,58,9.40
2008,09,01,03,59,9.30
2008,09,01,04,00,9.30
2008,09,01,04,01,9.30
2008,09,01,04,02,9.40
2008,09,01,04,03,9.40
2008,09,01,04,04,9.40
2008,09,01,04,05,9.50
2008,09,01,04,06,9.50
2008,09,01,04,07,9.50
2008,09,01,04,08,9.50
2008,09,01,04,09,9.50
2008,09,01,04,10,9.50
2008,09,01,04,24,9.70
2008,09,01,04,40,9.20
2008,09,01,04,53,8.90
2008,09,01,05,15,8.70
2008,09,01,05,31,8.60
2008,09,01,05,52,8.30
2008,09,01,06,19,8.40
2008,09,01,06,44,8.70
2008,09,01,06,53,8.70
2008,09,01,06,54,8.70
2008,09,01,06,55,8.70
2008,09,01,06,56,8.70
2008,09,01,06,57,8.80
2008,09,01,06,58,8.80
2008,09,01,06,59,8.80
2008,09,01,07,00,8.80
2008,09,01,07,01,8.80
2008,09,01,07,02,8.80
2008,09,01,07,03,8.90
2008,09,01,07,04,9.00
2008,09,01,07,05,9.10
2008,09,01,07,06,9.10
2008,09,01,07,07,9.20
2008,09,01,07,08,9.20
2008,09,01,07,09,9.20
2008,09,01,07,10,9.20
2008,09,01,07,11,9.20
2008,09,01,07,12,9.20
2008,09,01,07,13,9.20
2008,09,01,07,14,9.20
2008,09,01,07,15,9.20
2008,09,01,07,16,9.20
2008,09,01,07,17,9.20
2008,09,01,07,18,9.20
2008,09,01,07,19,9.20
2008,09,01,07,20,9.20
2008,09,01,07,21,9.20
2008,09,01,07,22,9.20
2008,09,01,07,23,9.20
2008,09,01,07,24,9.20
2008,09,01,07,25,9.20
2008,09,01,07,26,9.20
2008,09,01,07,27,9.30
2008,09,01,07,28,9.30
2008,09,01,07,29,9.30
2008,09,01,07,30,9.30
2008,09,01,07,31,9.30
2008,09,01,07,32,9.30
2008,09,01,07,33,9.40
2008,09,01,07,34,9.40
2008,09,01,07,35,9.40
2008,09,01,07,36,9.40
2008,09,01,07,37,9.40
2008,09,01,07,38,9.50
2008,09,01,07,39,9.50
2008,09,01,07,40,9.50
2008,09,01,07,41,9.60
2008,09,01,07,42,9.60
2008,09,01,07,43,9.60
2008,09,01,07,44,9.70
2008,09,01,07,45,9.70
2008,09,01,07,46,9.70
2008,09,01,07,47,9.70
2008,09,01,07,48,9.70
2008,09,01,07,49,9.70
2008,09,01,07,50,9.70
2008,09,01,07,51,9.70
2008,09,01,07,52,9.70
2008,09,01,07,53,9.70
2008,09,01,07,54,9.70
2008,09,01,07,55,9.70
2008,09,01,07,56,9.70
2008,09,01,07,57,9.70
2008,09,01,07,58,9.80
2008,09,01,07,59,9.80
2008,09,01,08,00,9.80
2008,09,01,08,01,9.80
2008,09,01,08,02,9.80
2008,09,01,08,03,9.80
2008,09,01,08,04,9.80
2008,09,01,08,05,9.80
2008,09,01,08,06,9.80
2008,09,01,08,07,9.80
2008,09,01,08,08,9.80
2008,09,01,08,09,9.80
2008,09,01,08,10,9.90
2008,09,01,08,11,9.90
2008,09,01,08,12,10.00
2008,09,01,08,13,10.10
2008,09,01,08,14,10.10
2008,09,01,08,15,10.10
2008,09,01,08,16,10.10
2008,09,01,08,17,10.10
2008,09,01,08,18,10.10
2008,09,01,08,19,10.10
2008,09,01,08,20,10.10
2008,09,01,08,21,10.10
2008,09,01,08,22,10.10
2008,09,01,08,23,10.10
2008,09,01,08,24,10.10
2008,09,01,08,25,10.10
2008,09,01,08,26,10.10
2008,09,01,08,27,10.10
2008,09,01,08,28,10.10
2008,09,01,08,29,10.10
2008,09,01,08,30,10.10
2008,09,01,08,31,10.20
2008,09,01,08,32,10.20
2008,09,01,08,33,10.20
2008,09,01,08,34,10.30
2008,09,01,08,35,10.40
2008,09,01,08,36,10.40
2008,09,01,08,37,10.40
2008,09,01,08,38,10.50
2008,09,01,08,39,10.60
2008,09,01,08,40,10.60
2008,09,01,08,41,10.60
2008,09,01,08,42,10.60
2008,09,01,08,43,10.60
2008,09,01,08,44,10.60
2008,09,01,08,45,10.60
2008,09,01,08,46,10.60
2008,09,01,08,47,10.60
2008,09,01,08,48,10.60
2008,09,01,08,49,10.60
2008,09,01,08,50,10.70
2008,09,01,08,51,10.80
2008,09,01,08,52,10.80
2008,09,01,08,53,10.90
2008,09,01,08,54,10.90
2008,09,01,08,55,10.90
2008,09,01,08,56,10.90
2008,09,01,08,57,10.90
2008,09,01,08,58,10.90
2008,09,01,08,59,10.90
2008,09,01,09,00,10.90
2008,09,01,09,01,10.90
2008,09,01,09,02,10.90
2008,09,01,09,03,10.90
2008,09,01,09,04,10.90
2008,09,01,09,05,10.80
2008,09,01,09,06,10.80
2008,09,01,09,07,10.80
2008,09,01,09,08,10.70
2008,09,01,09,09,10.70
2008,09,01,09,10,10.70
2008,09,01,09,11,10.60
2008,09,01,09,12,10.60
2008,09,01,09,13,10.60
2008,09,01,09,14,10.60
2008,09,01,09,15,10.50
2008,09,01,09,16,10.40
2008,09,01,09,17,10.40
2008,09,01,09,18,10.40
2008,09,01,09,19,10.40
2008,09,01,09,20,10.40
2008,09,01,09,21,10.40
2008,09,01,09,22,10.30
2008,09,01,09,23,10.30
2008,09,01,09,24,10.30
2008,09,01,09,25,10.30
2008,09,01,09,26,10.40
2008,09,01,09,27,10.40
2008,09,01,09,28,10.40
2008,09,01,09,29,10.60
2008,09,01,09,30,10.60
2008,09,01,09,31,10.60
2008,09,01,09,32,10.60
2008,09,01,09,33,10.60
2008,09,01,09,34,10.60
2008,09,01,09,35,10.60
2008,09,01,09,36,10.60
2008,09,01,09,37,10.60
2008,09,01,09,38,10.60
2008,09,01,09,39,10.60
2008,09,01,09,40,10.60
2008,09,01,09,41,10.60
2008,09,01,09,42,10.70
2008,09,01,09,43,10.80
2008,09,01,09,44,10.90
2008,09,01,09,45,10.90
2008,09,01,09,46,11.00
2008,09,01,09,47,11.10
2008,09,01,09,48,11.10
2008,09,01,09,49,11.10
2008,09,01,09,50,11.10
2008,09,01,09,51,11.10
2008,09,01,09,52,11.10
2008,09,01,09,53,11.20
2008,09,01,09,54,11.20
2008,09,01,09,55,11.30
2008,09,01,09,56,11.30
2008,09,01,09,57,11.40
2008,09,01,09,58,11.40
2008,09,01,09,59,11.40
2008,09,01,10,00,11.50
2008,09,01,10,01,11.70
2008,09,01,10,02,11.70
2008,09,01,10,03,11.70
2008,09,01,10,04,11.70
2008,09,01,10,05,11.80
2008,09,01,10,06,11.80
2008,09,01,10,07,11.80
2008,09,01,10,08,11.80
2008,09,01,10,09,11.80
2008,09,01,10,10,11.80
2008,09,01,10,11,11.80
2008,09,01,10,12,11.80
2008,09,01,10,13,11.80
2008,09,01,10,14,11.80
2008,09,01,10,15,11.80
2008,09,01,10,16,11.80
2008,09,01,10,17,11.80
2008,09,01,10,18,11.90
2008,09,01,10,19,11.80
2008,09,01,10,20,11.90
2008,09,01,10,21,12.00
2008,09,01,10,22,12.00
2008,09,01,10,23,12.10
2008,09,01,10,24,12.20
2008,09,01,10,25,12.20
2008,09,01,10,26,12.30
2008,09,01,10,27,12.30
2008,09,01,10,28,12.30
2008,09,01,10,29,12.30
2008,09,01,10,30,12.40
2008,09,01,10,31,12.40
2008,09,01,10,32,12.30
2008,09,01,10,33,12.30
2008,09,01,10,34,12.30
2008,09,01,10,35,12.30
2008,09,01,10,36,12.20
2008,09,01,10,37,12.20
2008,09,01,10,38,12.10
2008,09,01,10,39,12.00
2008,09,01,10,40,11.90
2008,09,01,10,41,11.80
2008,09,01,10,42,11.70
2008,09,01,10,43,11.70
2008,09,01,10,44,11.60
2008,09,01,10,45,11.60
2008,09,01,10,46,11.70
2008,09,01,10,47,11.80
2008,09,01,10,48,11.80
2008,09,01,10,49,11.80
2008,09,01,10,50,11.80
2008,09,01,10,51,11.90
2008,09,01,10,52,12.00
2008,09,01,10,53,12.00
2008,09,01,10,54,12.00
2008,09,01,10,55,12.00
2008,09,01,10,56,12.00
2008,09,01,10,57,11.80
2008,09,01,10,58,11.80
2008,09,01,10,59,11.80
2008,09,01,11,00,11.70
2008,09,01,11,01,11.70
2008,09,01,11,02,11.80
2008,09,01,11,03,11.90
2008,09,01,11,04,11.90
2008,09,01,11,05,11.90
2008,09,01,11,06,11.90
2008,09,01,11,07,11.90
2008,09,01,11,08,12.00
2008,09,01,11,09,12.00
2008,09,01,11,10,12.10
2008,09,01,11,11,12.10
2008,09,01,11,12,12.10
2008,09,01,11,13,12.10
2008,09,01,11,14,12.00
2008,09,01,11,15,12.00
2008,09,01,11,16,12.00
2008,09,01,11,17,11.90
2008,09,01,11,18,11.90
2008,09,01,11,19,12.00
2008,09,01,11,20,12.10
2008,09,01,11,21,12.10
2008,09,01,11,22,12.10
2008,09,01,11,23,12.10
2008,09,01,11,24,12.10
2008,09,01,11,25,12.10
2008,09,01,11,26,12.10
2008,09,01,11,27,12.10
2008,09,01,11,28,12.30
2008,09,01,11,29,12.40
2008,09,01,11,30,12.50
2008,09,01,11,31,12.40
2008,09,01,11,32,12.40
2008,09,01,11,33,12.30
2008,09,01,11,34,12.30
2008,09,01,11,35,12.30
2008,09,01,11,36,12.20
2008,09,01,11,37,12.20
2008,09,01,11,38,12.20
2008,09,01,11,39,12.20
2008,09,01,11,40,12.20
2008,09,01,11,41,12.30
2008,09,01,11,42,12.20
2008,09,01,11,43,12.30
2008,09,01,11,44,12.30
2008,09,01,11,45,12.30
2008,09,01,11,46,12.30
2008,09,01,11,47,12.40
2008,09,01,11,48,12.40
2008,09,01,11,49,12.50
2008,09,01,11,50,12.50
2008,09,01,11,51,12.60
2008,09,01,11,52,12.70
2008,09,01,11,53,12.70
2008,09,01,11,54,12.60
2008,09,01,11,55,12.60
2008,09,01,11,56,12.70
2008,09,01,11,57,12.70
2008,09,01,11,58,12.60
2008,09,01,11,59,12.60
2008,09,01,12,00,12.60
2008,09,01,12,01,12.60
2008,09,01,12,02,12.70
2008,09,01,12,03,12.80
2008,09,01,12,04,12.80
2008,09,01,12,05,12.90
2008,09,01,12,06,13.00
2008,09,01,12,07,13.00
2008,09,01,12,08,13.00
2008,09,01,12,09,13.00
2008,09,01,12,10,13.10
2008,09,01,12,11,13.10
2008,09,01,12,12,13.10
2008,09,01,12,13,13.00
2008,09,01,12,14,12.80
2008,09,01,12,15,12.80
2008,09,01,12,16,12.80
2008,09,01,12,17,12.80
2008,09,01,12,18,12.80
2008,09,01,12,19,12.90
2008,09,01,12,20,13.00
2008,09,01,12,21,13.00
2008,09,01,12,22,13.00
2008,09,01,12,23,12.90
2008,09,01,12,24,12.90
2008,09,01,12,25,13.00
2008,09,01,12,26,13.00
2008,09,01,12,27,13.00
2008,09,01,12,28,13.00
2008,09,01,12,29,13.10
2008,09,01,12,30,13.20
2008,09,01,12,31,13.30
2008,09,01,12,32,13.30
2008,09,01,12,33,13.30
2008,09,01,12,34,13.30
2008,09,01,12,35,13.40
2008,09,01,12,36,13.30
2008,09,01,12,37,13.10
2008,09,01,12,38,13.10
2008,09,01,12,39,13.10
2008,09,01,12,40,13.10
2008,09,01,12,41,13.20
2008,09,01,12,42,13.20
2008,09,01,12,43,13.10
2008,09,01,12,44,13.10
2008,09,01,12,45,12.90
2008,09,01,12,46,12.90
2008,09,01,12,47,12.80
2008,09,01,12,48,12.80
2008,09,01,12,49,12.80
2008,09,01,12,50,12.80
2008,09,01,12,51,13.00
2008,09,01,12,52,13.00
2008,09,01,12,53,13.00
2008,09,01,12,54,12.90
2008,09,01,12,55,12.90
2008,09,01,12,56,13.00
2008,09,01,12,57,13.10
2008,09,01,12,58,13.30
2008,09,01,12,59,13.30
2008,09,01,13,00,13.40
2008,09,01,13,01,13.50
2008,09,01,13,02,13.40
2008,09,01,13,03,13.30
2008,09,01,13,04,13.30
2008,09,01,13,05,13.30
2008,09,01,13,06,13.30
2008,09,01,13,07,13.20
2008,09,01,13,08,13.30
2008,09,01,13,09,13.20
2008,09,01,13,10,13.10
2008,09,01,13,11,13.00
2008,09,01,13,12,13.10
2008,09,01,13,13,13.20
2008,09,01,13,14,13.30
2008,09,01,13,15,13.30
2008,09,01,13,16,13.30
2008,09,01,13,17,13.50
2008,09,01,13,18,13.60
2008,09,01,13,19,13.70
2008,09,01,13,20,13.70
2008,09,01,13,21,13.60
2008,09,01,13,22,13.60
2008,09,01,13,23,13.50
2008,09,01,13,24,13.50
2008,09,01,13,25,13.30
2008,09,01,13,26,13.30
2008,09,01,13,27,13.30
2008,09,01,13,28,13.30
2008,09,01,13,29,13.20
2008,09,01,13,30,13.20
2008,09,01,13,31,13.20
2008,09,01,13,32,13.20
2008,09,01,13,33,13.30
2008,09,01,13,34,13.40
2008,09,01,13,35,13.50
2008,09,01,13,36,13.60
2008,09,01,13,37,13.50
2008,09,01,13,38,13.50
2008,09,01,13,39,13.50
2008,09,01,13,40,13.40
2008,09,01,13,41,13.40
2008,09,01,13,42,13.40
2008,09,01,13,43,13.50
2008,09,01,13,44,13.60
2008,09,01,13,45,13.70
2008,09,01,13,46,13.80
2008,09,01,13,47,13.90
2008,09,01,13,48,13.90
2008,09,01,13,49,14.00
2008,09,01,13,50,14.10
2008,09,01,13,51,14.20
2008,09,01,13,52,14.20
2008,09,01,13,53,14.20
2008,09,01,13,54,14.10
2008,09,01,13,55,14.00
2008,09,01,13,56,13.80
2008,09,01,13,57,13.80
2008,09,01,13,58,13.90
2008,09,01,13,59,13.90
2008,09,01,14,00,13.90
2008,09,01,14,01,14.00
2008,09,01,14,02,14.00
2008,09,01,14,03,14.10
2008,09,01,14,04,14.20
2008,09,01,14,05,14.10
2008,09,01,14,06,14.10
2008,09,01,14,07,14.10
2008,09,01,14,08,14.20
2008,09,01,14,09,14.10
2008,09,01,14,10,14.10
2008,09,01,14,11,14.00
2008,09,01,14,12,13.90
2008,09,01,14,13,13.90
2008,09,01,14,14,14.00
2008,09,01,14,15,14.00
2008,09,01,14,16,14.20
2008,09,01,14,17,14.20
2008,09,01,14,18,14.00
2008,09,01,14,19,13.90
2008,09,01,14,20,13.80
2008,09,01,14,21,13.70
2008,09,01,14,22,13.70
2008,09,01,14,23,13.70
2008,09,01,14,24,13.70
2008,09,01,14,25,13.70
2008,09,01,14,26,13.70
2008,09,01,14,27,13.60
2008,09,01,14,28,13.60
2008,09,01,14,29,13.50
2008,09,01,14,30,13.60
2008,09,01,14,31,13.70
2008,09,01,14,32,13.70
2008,09,01,14,33,13.80
2008,09,01,14,34,13.80
2008,09,01,14,35,13.70
2008,09,01,14,36,13.70
2008,09,01,14,37,13.70
2008,09,01,14,38,13.70
2008,09,01,14,39,13.80
2008,09,01,14,40,13.80
2008,09,01,14,41,13.90
2008,09,01,14,42,13.90
2008,09,01,14,43,13.90
2008,09,01,14,44,13.90
2008,09,01,14,45,13.80
2008,09,01,14,46,13.80
2008,09,01,14,47,13.90
2008,09,01,14,48,14.00
2008,09,01,14,49,13.90
2008,09,01,14,50,13.80
2008,09,01,14,51,13.70
2008,09,01,14,52,13.60
2008,09,01,14,53,13.60
2008,09,01,14,54,13.70
2008,09,01,14,55,13.70
2008,09,01,14,56,13.80
2008,09,01,14,57,13.80
2008,09,01,14,58,13.90
2008,09,01,14,59,13.80
2008,09,01,15,00,13.80
2008,09,01,15,01,13.90
2008,09,01,15,02,13.90
2008,09,01,15,03,13.90
2008,09,01,15,04,13.90
2008,09,01,15,05,13.90
2008,09,01,15,06,13.90
2008,09,01,15,07,13.70
2008,09,01,15,08,13.60
2008,09,01,15,09,13.60
2008,09,01,15,10,13.60
2008,09,01,15,11,13.50
2008,09,01,15,12,13.50
2008,09,01,15,13,13.60
2008,09,01,15,14,13.60
2008,09,01,15,15,13.60
2008,09,01,15,16,13.60
2008,09,01,15,17,13.60
2008,09,01,15,18,13.60
2008,09,01,15,19,13.60
2008,09,01,15,20,13.60
2008,09,01,15,21,13.60
2008,09,01,15,22,13.70
2008,09,01,15,23,13.70
2008,09,01,15,24,13.60
2008,09,01,15,25,13.50
2008,09,01,15,26,13.40
2008,09,01,15,27,13.30
2008,09,01,15,28,13.20
2008,09,01,15,29,13.20
2008,09,01,15,30,13.20
2008,09,01,15,31,13.30
2008,09,01,15,32,13.30
2008,09,01,15,33,13.30
2008,09,01,15,34,13.50
2008,09,01,15,35,13.50
2008,09,01,15,36,13.60
2008,09,01,15,37,13.60
2008,09,01,15,38,13.60
2008,09,01,15,39,13.60
2008,09,01,15,40,13.60
2008,09,01,15,41,13.60
2008,09,01,15,42,13.50
2008,09,01,15,43,13.50
2008,09,01,15,44,13.50
2008,09,01,15,45,13.50
2008,09,01,15,46,13.50
2008,09,01,15,47,13.50
2008,09,01,15,48,13.60
2008,09,01,15,49,13.60
2008,09,01,15,50,13.70
2008,09,01,15,51,13.70
2008,09,01,15,52,13.70
2008,09,01,15,53,13.70
2008,09,01,15,54,13.70
2008,09,01,15,55,13.70
2008,09,01,15,56,13.60
2008,09,01,15,57,13.60
2008,09,01,15,58,13.50
2008,09,01,15,59,13.50
2008,09,01,16,00,13.40
2008,09,01,16,01,13.40
2008,09,01,16,02,13.50
2008,09,01,16,03,13.50
2008,09,01,16,04,13.50
2008,09,01,16,05,13.40
2008,09,01,16,06,13.50
2008,09,01,16,07,13.50
2008,09,01,16,08,13.60
2008,09,01,16,09,13.70
2008,09,01,16,10,13.70
2008,09,01,16,11,13.70
2008,09,01,16,12,13.70
2008,09,01,16,13,13.70
2008,09,01,16,14,13.70
2008,09,01,16,15,13.80
2008,09,01,16,16,13.80
2008,09,01,16,17,13.80
2008,09,01,16,18,13.70
2008,09,01,16,19,13.70
2008,09,01,16,20,13.70
2008,09,01,16,21,13.70
2008,09,01,16,22,13.70
2008,09,01,16,23,13.70
2008,09,01,16,24,13.70
2008,09,01,16,25,13.70
2008,09,01,16,26,13.80
2008,09,01,16,27,13.80
2008,09,01,16,28,13.80
2008,09,01,16,29,13.90
2008,09,01,16,30,13.90
2008,09,01,16,31,13.90
2008,09,01,16,32,14.00
2008,09,01,16,33,14.10
2008,09,01,16,34,14.20
2008,09,01,16,35,14.20
2008,09,01,16,36,14.30
2008,09,01,16,37,14.40
2008,09,01,16,38,14.40
2008,09,01,16,39,14.50
2008,09,01,16,40,14.50
2008,09,01,16,41,14.50
2008,09,01,16,42,14.60
2008,09,01,16,43,14.60
2008,09,01,16,44,14.60
2008,09,01,16,45,14.60
2008,09,01,16,46,14.70
2008,09,01,16,47,14.60
2008,09,01,16,48,14.60
2008,09,01,16,49,14.50
2008,09,01,16,50,14.50
2008,09,01,16,51,14.50
2008,09,01,16,52,14.50
2008,09,01,16,53,14.40
2008,09,01,16,54,14.40
2008,09,01,16,55,14.50
2008,09,01,16,56,14.50
2008,09,01,16,57,14.50
2008,09,01,16,58,14.60
2008,09,01,16,59,14.60
2008,09,01,17,00,14.60
2008,09,01,17,01,14.50
2008,09,01,17,02,14.60
2008,09,01,17,03,14.60
2008,09,01,17,04,14.60
2008,09,01,17,05,14.60
2008,09,01,17,06,14.60
2008,09,01,17,07,14.70
2008,09,01,17,08,14.70
2008,09,01,17,09,14.60
2008,09,01,17,10,14.60
2008,09,01,17,11,14.70
2008,09,01,17,12,14.60
2008,09,01,17,13,14.60
2008,09,01,17,14,14.60
2008,09,01,17,15,14.60
2008,09,01,17,16,14.60
2008,09,01,17,17,14.70
2008,09,01,17,18,14.70
2008,09,01,17,19,14.70
2008,09,01,17,20,14.80
2008,09,01,17,21,14.80
2008,09,01,17,22,14.80
2008,09,01,17,23,14.70
2008,09,01,17,24,14.70
2008,09,01,17,25,14.70
2008,09,01,17,26,14.70
2008,09,01,17,27,14.60
2008,09,01,17,28,14.50
2008,09,01,17,29,14.50
2008,09,01,17,30,14.40
2008,09,01,17,31,14.40
2008,09,01,17,32,14.40
2008,09,01,17,33,14.40
2008,09,01,17,34,14.40
2008,09,01,17,35,14.50
2008,09,01,17,36,14.50
2008,09,01,17,37,14.50
2008,09,01,17,38,14.50
2008,09,01,17,39,14.50
2008,09,01,17,40,14.50
2008,09,01,17,41,14.50
2008,09,01,17,42,14.40
2008,09,01,17,43,14.40
2008,09,01,17,44,14.30
2008,09,01,17,45,14.30
2008,09,01,17,46,14.30
2008,09,01,17,47,14.30
2008,09,01,17,48,14.30
2008,09,01,17,49,14.30
2008,09,01,17,50,14.40
2008,09,01,17,51,14.40
2008,09,01,17,52,14.40
2008,09,01,17,53,14.40
2008,09,01,17,54,14.40
2008,09,01,17,55,14.40
2008,09,01,17,56,14.40
2008,09,01,17,57,14.50
2008,09,01,17,58,14.50
2008,09,01,17,59,14.40
2008,09,01,18,00,14.50
2008,09,01,18,01,14.50
2008,09,01,18,02,14.50
2008,09,01,18,03,14.60
2008,09,01,18,04,14.60
2008,09,01,18,05,14.60
2008,09,01,18,06,14.60
2008,09,01,18,07,14.60
2008,09,01,18,08,14.60
2008,09,01,18,09,14.60
2008,09,01,18,10,14.60
2008,09,01,18,11,14.60
2008,09,01,18,12,14.60
2008,09,01,18,13,14.70
2008,09,01,18,14,14.70
2008,09,01,18,15,14.70
2008,09,01,18,16,14.70
2008,09,01,18,17,14.70
2008,09,01,18,18,14.70
2008,09,01,18,19,14.70
2008,09,01,18,20,14.70
2008,09,01,18,21,14.70
2008,09,01,18,22,14.70
2008,09,01,18,23,14.60
2008,09,01,18,24,14.60
2008,09,01,18,25,14.60
2008,09,01,18,26,14.60
2008,09,01,18,27,14.60
2008,09,01,18,28,14.50
2008,09,01,18,29,14.50
2008,09,01,18,30,14.50
2008,09,01,18,31,14.40
2008,09,01,18,32,14.40
2008,09,01,18,33,14.30
2008,09,01,18,34,14.30
2008,09,01,18,35,14.30
2008,09,01,18,36,14.40
2008,09,01,18,37,14.50
2008,09,01,18,38,14.50
2008,09,01,18,39,14.50
2008,09,01,18,40,14.50
2008,09,01,18,41,14.40
2008,09,01,18,42,14.50
2008,09,01,18,43,14.50
2008,09,01,18,44,14.50
2008,09,01,18,45,14.60
2008,09,01,18,46,14.60
2008,09,01,18,47,14.60
2008,09,01,18,48,14.60
2008,09,01,18,49,14.70
2008,09,01,18,50,14.70
2008,09,01,18,51,14.70
2008,09,01,18,52,14.70
2008,09,01,18,53,14.60
2008,09,01,18,54,14.60
2008,09,01,18,55,14.50
2008,09,01,18,56,14.50
2008,09,01,18,57,14.40
2008,09,01,18,58,14.40
2008,09,01,18,59,14.40
2008,09,01,19,00,14.40
2008,09,01,19,01,14.40
2008,09,01,19,02,14.40
2008,09,01,19,03,14.50
2008,09,01,19,04,14.40
2008,09,01,19,05,14.40
2008,09,01,19,06,14.40
2008,09,01,19,07,14.40
2008,09,01,19,08,14.30
2008,09,01,19,09,14.30
2008,09,01,19,10,14.20
2008,09,01,19,11,14.20
2008,09,01,19,12,14.20
2008,09,01,19,13,14.20
2008,09,01,19,14,14.20
2008,09,01,19,15,14.20
2008,09,01,19,16,14.20
2008,09,01,19,17,14.10
2008,09,01,19,18,14.00
2008,09,01,19,19,13.90
2008,09,01,19,20,13.80
2008,09,01,19,21,13.80
2008,09,01,19,22,13.70
2008,09,01,19,23,13.70
2008,09,01,19,24,13.60
2008,09,01,19,25,13.60
2008,09,01,19,26,13.50
2008,09,01,19,27,13.50
2008,09,01,19,28,13.40
2008,09,01,19,29,13.40
2008,09,01,19,30,13.30
2008,09,01,19,31,13.30
2008,09,01,19,32,13.30
2008,09,01,19,33,13.30
2008,09,01,19,34,13.20
2008,09,01,19,35,13.10
2008,09,01,19,36,13.10
2008,09,01,19,37,13.10
2008,09,01,19,38,13.00
2008,09,01,19,39,13.00
2008,09,01,19,40,12.90
2008,09,01,19,41,12.90
2008,09,01,19,42,12.90
2008,09,01,19,43,12.80
2008,09,01,19,44,12.80
2008,09,01,19,45,12.80
2008,09,01,19,46,12.80
2008,09,01,19,47,12.70
2008,09,01,19,48,12.70
2008,09,01,19,49,12.70
2008,09,01,19,50,12.70
2008,09,01,19,51,12.70
2008,09,01,19,52,12.60
2008,09,01,19,53,12.60
2008,09,01,19,54,12.60
2008,09,01,19,55,12.60
2008,09,01,19,56,12.60
2008,09,01,19,57,12.50
2008,09,01,19,58,12.50
2008,09,01,19,59,12.50
2008,09,01,20,00,12.50